Minneapolis, MN

4:55 PM CST on February 22, 2017 (GMT -0600)
Minneapolis-Saint Paul International

Weather History for KMSP - July, 2013

Change the Weather History Date:

Tuesday, July 23, 2013

  Actual Average Record
Temperature  
Mean Temperature 70 °F 74 °F  
Max Temperature 77 °F 83 °F 105 °F (1934)
Min Temperature 63 °F 64 °F 47 °F (1876)
Degree Days  
Heating Degree Days 0 0  
Month to date heating degree days 0 0  
Since 1 June heating degree days 42 44  
Since 1 July heating degree days 0 0  
Cooling Degree Days 5 9  
Month to date cooling degree days 293 205  
Year to date cooling degree days 510 405  
Since 1 June cooling degree days 457 363  
Growing Degree Days 20 (Base 50)    
Moisture  
Dew Point 53 °F    
Average Humidity 61    
Maximum Humidity 78    
Minimum Humidity 43    
Precipitation  
Precipitation 0.00 in 0.12 in 9.15 in (1987)
Month to date precipitation 3.45 2.95  
Year to date precipitation 24.31 16.78  
Snow  
Snow 0.00 in 0.00 in 0.00 in ()
Month to date snowfall 0.0 0.0  
Since 1 June snowfall 0.0 0.0  
Since 1 July snowfall 0.0 0.0  
Snow Depth 0.00 in    
Sea Level Pressure  
Sea Level Pressure 29.96 in    
Wind  
Wind Speed 9 mph (North)    
Max Wind Speed 17 mph    
Max Gust Speed 28 mph    
Visibility 10 miles    
Events      
T = Trace of Precipitation, MM = Missing Value Source: NWS Daily Summary

Daily Weather History Graph

Daily Weather History Graph

Search for Another Location

Airport or City:

Trip Planner

Search our weather history database for the weather conditions in past years. The results will help you decide how hot, cold, wet, or windy it might be!

Date:

Astronomy

Jul. 23, 2013 Rise Set
Actual Time 5:49 AM CDT 8:49 PM CDT
Civil Twilight 5:14 AM CDT 9:23 PM CDT
Nautical Twilight 4:29 AM CDT 10:08 PM CDT
Astronomical Twilight 3:36 AM CDT 11:00 PM CDT
Moon 9:10 PM CDT (7/23) 7:03 AM CDT (7/23)
Length of Visible Light 16h 09m
Length of Day
15h 00m
Full, 99% of the Moon is Illuminated
Jul 23
Full
Jul 29
Last Quarter
Aug 6
New
Aug 14
First Quarter
Aug 20
Full

Hourly Weather History & Observations

Time (CDT) Temp. Dew Point Humidity Pressure Visibility Wind Dir Wind Speed Gust Speed Precip Events Conditions
12:53 AM 68.0 °F 55.9 °F 65% 29.86 in 10.0 mi NNW 6.9 mph - N/A   Mostly Cloudy
1:53 AM 68.0 °F 54.0 °F 61% 29.85 in 10.0 mi North 5.8 mph - N/A   Partly Cloudy
2:53 AM 66.0 °F 54.0 °F 65% 29.86 in 10.0 mi NNW 6.9 mph - N/A   Partly Cloudy
3:53 AM 64.9 °F 55.0 °F 70% 29.87 in 10.0 mi North 8.1 mph - N/A   Scattered Clouds
4:53 AM 63.0 °F 55.0 °F 75% 29.90 in 10.0 mi NW 5.8 mph - N/A   Partly Cloudy
5:53 AM 63.0 °F 55.0 °F 75% 29.91 in 10.0 mi North 9.2 mph - N/A   Partly Cloudy
6:53 AM 63.0 °F 54.0 °F 72% 29.93 in 10.0 mi North 9.2 mph - N/A   Partly Cloudy
7:53 AM 64.9 °F 54.0 °F 68% 29.96 in 10.0 mi North 8.1 mph 21.9 mph N/A   Partly Cloudy
8:53 AM 66.9 °F 53.1 °F 61% 29.96 in 10.0 mi North 13.8 mph - N/A   Partly Cloudy
9:53 AM 68.0 °F 53.1 °F 59% 29.97 in 10.0 mi North 12.7 mph - N/A   Partly Cloudy
10:53 AM 70.0 °F 51.1 °F 51% 29.99 in 10.0 mi North 15.0 mph 21.9 mph N/A   Scattered Clouds
11:53 AM 72.0 °F 52.0 °F 49% 30.00 in 10.0 mi North 10.4 mph 17.3 mph N/A   Scattered Clouds
12:53 PM 73.0 °F 52.0 °F 48% 29.99 in 10.0 mi NE 11.5 mph - N/A   Scattered Clouds
1:53 PM 73.0 °F 51.1 °F 46% 29.99 in 10.0 mi North 10.4 mph 20.7 mph N/A   Partly Cloudy
2:53 PM 73.9 °F 51.1 °F 45% 29.99 in 10.0 mi NE 9.2 mph - N/A   Partly Cloudy
3:53 PM 75.0 °F 51.1 °F 43% 29.99 in 10.0 mi NNE 6.9 mph - N/A   Partly Cloudy
4:53 PM 75.9 °F 52.0 °F 43% 29.98 in 10.0 mi North 10.4 mph - N/A   Partly Cloudy
5:53 PM 75.0 °F 52.0 °F 44% 29.98 in 10.0 mi East 6.9 mph - N/A   Scattered Clouds
6:53 PM 73.0 °F 52.0 °F 48% 29.98 in 10.0 mi Variable 6.9 mph - N/A   Scattered Clouds
7:53 PM 73.0 °F 52.0 °F 48% 29.99 in 10.0 mi North 8.1 mph - N/A   Scattered Clouds
8:53 PM 72.0 °F 52.0 °F 49% 29.99 in 10.0 mi NNE 5.8 mph - N/A   Scattered Clouds
9:53 PM 71.1 °F 51.1 °F 49% 30.01 in 10.0 mi Variable 5.8 mph - N/A   Scattered Clouds
10:53 PM 69.1 °F 52.0 °F 54% 30.01 in 10.0 mi NNE 6.9 mph - N/A   Scattered Clouds
11:53 PM 68.0 °F 53.1 °F 59% 30.02 in 10.0 mi NE 4.6 mph - N/A   Partly Cloudy